| time (UTC) | temp F | wind direction | speed knots | gust knots | rain 1hr in | rain 24hr in | rain mn in | humidity % | barometer mb |
| 20260507014303 | 41 | 306 | 0.0 | 0.0 | 0.00 | 0.00 | 0.00 | 43 | 1015.4 |
| 20260507013804 | 42 | 302 | 0.0 | 0.0 | 0.00 | 0.00 | 0.00 | 43 | 1015.4 |
| 20260507013303 | 43 | 302 | 0.0 | 2.6 | 0.00 | 0.00 | 0.00 | 43 | 1015.5 |
| 20260507012803 | 43 | 344 | 0.9 | 2.6 | 0.00 | 0.00 | 0.00 | 43 | 1015.6 |
| 20260507012306 | 43 | 341 | 1.7 | 4.3 | 0.00 | 0.00 | 0.00 | 43 | 1015.7 |
| 20260507011803 | 43 | 319 | 0.9 | 2.6 | 0.00 | 0.00 | 0.00 | 43 | 1015.7 |
| 20260507011303 | 43 | 320 | 1.7 | 5.2 | 0.00 | 0.00 | 0.00 | 43 | 1015.7 |
| 20260507010803 | 43 | 322 | 1.7 | 4.3 | 0.00 | 0.00 | 0.00 | 43 | 1015.6 |
| 20260507010304 | 44 | 330 | 1.7 | 4.3 | 0.00 | 0.00 | 0.00 | 43 | 1015.6 |
| 20260507005803 | 44 | 322 | 0.9 | 2.6 | 0.00 | 0.00 | 0.00 | 42 | 1015.6 |
| 20260507005305 | 44 | 305 | 1.7 | 2.6 | 0.00 | 0.00 | 0.00 | 42 | 1015.5 |
| 20260507004803 | 44 | 331 | 1.7 | 5.2 | 0.00 | 0.00 | 0.00 | 42 | 1015.5 |
| 20260507004303 | 44 | 302 | 1.7 | 4.3 | 0.00 | 0.00 | 0.00 | 42 | 1015.6 |
| 20260507003803 | 44 | 310 | 2.6 | 7.0 | 0.00 | 0.00 | 0.00 | 42 | 1015.5 |
| 20260507003303 | 44 | 310 | 2.6 | 7.0 | 0.00 | 0.00 | 0.00 | 42 | 1015.5 |
| 20260507002803 | 44 | 312 | 5.2 | 8.7 | 0.00 | 0.00 | 0.00 | 42 | 1015.5 |
| 20260507002306 | 44 | 304 | 2.6 | 6.1 | 0.00 | 0.00 | 0.00 | 42 | 1015.5 |
| 20260507001803 | 44 | 258 | 2.6 | 8.7 | 0.00 | 0.00 | 0.00 | 42 | 1015.5 |
| 20260507001304 | 45 | 249 | 3.5 | 10.4 | 0.00 | 0.00 | 0.00 | 42 | 1015.5 |
| 20260507000803 | 45 | 262 | 3.5 | 7.8 | 0.00 | 0.00 | 0.00 | 42 | 1015.5 |
| 20260507000303 | 45 | 354 | 3.5 | 7.8 | 0.00 | 0.00 | 0.00 | 42 | 1015.5 |
| 20260506235803 | 45 | 309 | 2.6 | 6.1 | 0.00 | 0.00 | 0.00 | 41 | 1015.5 |
| 20260506235306 | 45 | 243 | 2.6 | 7.8 | 0.00 | 0.00 | 0.00 | 41 | 1015.5 |
| 20260506234803 | 45 | 321 | 3.5 | 7.8 | 0.00 | 0.00 | 0.00 | 41 | 1015.5 |
| 20260506234303 | 45 | 309 | 5.2 | 11.3 | 0.00 | 0.00 | 0.00 | 41 | 1015.5 |
| 20260506233803 | 45 | 301 | 4.3 | 13.0 | 0.00 | 0.00 | 0.00 | 41 | 1015.6 |
| 20260506233303 | 45 | 325 | 6.1 | 12.2 | 0.00 | 0.00 | 0.00 | 41 | 1015.6 |
| 20260506232803 | 45 | 344 | 6.1 | 10.4 | 0.00 | 0.00 | 0.00 | 41 | 1015.5 |
| 20260506232306 | 45 | 329 | 2.6 | 7.8 | 0.00 | 0.00 | 0.00 | 41 | 1015.5 |
| 20260506231803 | 45 | 301 | 7.0 | 10.4 | 0.00 | 0.00 | 0.00 | 41 | 1015.6 |
| 20260506230803 | 45 | 258 | 6.1 | 10.4 | 0.00 | 0.00 | 0.00 | 41 | 1015.7 |
| 20260506230304 | 46 | 292 | 4.3 | 10.4 | 0.00 | 0.00 | 0.00 | 41 | 1015.6 |
| 20260506225803 | 46 | 282 | 7.0 | 13.9 | 0.00 | 0.00 | 0.00 | 42 | 1015.6 |
| 20260506225305 | 46 | 285 | 6.1 | 12.2 | 0.00 | 0.00 | 0.00 | 42 | 1015.6 |
| 20260506224303 | 46 | 261 | 6.1 | 11.3 | 0.00 | 0.00 | 0.00 | 42 | 1015.7 |
| 20260506223803 | 45 | 285 | 6.1 | 11.3 | 0.00 | 0.00 | 0.00 | 42 | 1015.8 |
| 20260506223303 | 46 | 281 | 5.2 | 14.8 | 0.00 | 0.00 | 0.00 | 42 | 1015.8 |
| 20260506222306 | 45 | 283 | 4.3 | 10.4 | 0.00 | 0.00 | 0.00 | 42 | 1015.8 |
| 20260506221303 | 46 | 289 | 4.3 | 8.7 | 0.00 | 0.00 | 0.00 | 42 | 1015.8 |
| 20260506220303 | 45 | 297 | 6.1 | 11.3 | 0.00 | 0.00 | 0.00 | 42 | 1015.9 |
| 20260506215803 | 45 | 286 | 5.2 | 10.4 | 0.00 | 0.00 | 0.00 | 47 | 1015.9 |
| 20260506215305 | 45 | 288 | 5.2 | 10.4 | 0.00 | 0.00 | 0.00 | 47 | 1016.0 |
| 20260506214804 | 45 | 301 | 5.2 | 10.4 | 0.00 | 0.00 | 0.00 | 47 | 1016.0 |
| 20260506213803 | 45 | 324 | 4.3 | 10.4 | 0.00 | 0.00 | 0.00 | 47 | 1016.0 |
| 20260506213303 | 45 | 358 | 6.1 | 13.9 | 0.00 | 0.00 | 0.00 | 47 | 1016.0 |
| 20260506212803 | 45 | 0 | 5.2 | 10.4 | 0.00 | 0.00 | 0.00 | 47 | 1016.0 |
| 20260506212306 | 44 | 0 | 5.2 | 11.3 | 0.00 | 0.00 | 0.00 | 47 | 1016.1 |
| 20260506211803 | 45 | 0 | 6.1 | 12.2 | 0.00 | 0.00 | 0.00 | 47 | 1016.1 |
| 20260506211303 | 44 | 0 | 7.0 | 13.0 | 0.00 | 0.00 | 0.00 | 47 | 1016.2 |
| 20260506210803 | 44 | 292 | 5.2 | 11.3 | 0.00 | 0.00 | 0.00 | 47 | 1016.2 |
| 20260506210303 | 44 | 315 | 6.1 | 11.3 | 0.00 | 0.00 | 0.00 | 47 | 1016.3 |
| 20260506205803 | 44 | 334 | 6.1 | 13.0 | 0.00 | 0.00 | 0.00 | 48 | 1016.4 |
| 20260506205306 | 44 | 311 | 4.3 | 8.7 | 0.00 | 0.00 | 0.00 | 48 | 1016.4 |
| 20260506204803 | 44 | 297 | 4.3 | 12.2 | 0.00 | 0.00 | 0.00 | 48 | 1016.4 |
| 20260506204304 | 44 | 335 | 5.2 | 10.4 | 0.00 | 0.00 | 0.00 | 48 | 1016.4 |
| 20260506203804 | 44 | 335 | 4.3 | 7.8 | 0.00 | 0.00 | 0.00 | 48 | 1016.4 |
| 20260506203303 | 44 | 297 | 5.2 | 10.4 | 0.00 | 0.00 | 0.00 | 48 | 1016.4 |
| 20260506202803 | 44 | 301 | 6.1 | 11.3 | 0.00 | 0.00 | 0.00 | 48 | 1016.5 |
| 20260506202306 | 44 | 280 | 4.3 | 12.2 | 0.00 | 0.00 | 0.00 | 48 | 1016.5 |
| 20260506201303 | 43 | 323 | 6.1 | 12.2 | 0.00 | 0.00 | 0.00 | 48 | 1016.5 |
| 20260506200803 | 43 | 306 | 5.2 | 13.9 | 0.00 | 0.00 | 0.00 | 48 | 1016.5 |
| 20260506200303 | 43 | 0 | 5.2 | 12.2 | 0.00 | 0.00 | 0.00 | 48 | 1016.5 |
| 20260506195803 | 43 | 0 | 4.3 | 11.3 | 0.00 | 0.00 | 0.00 | 49 | 1016.5 |
| 20260506195306 | 43 | 0 | 6.1 | 14.8 | 0.00 | 0.00 | 0.00 | 49 | 1016.5 |
| 20260506194803 | 43 | 314 | 6.1 | 13.9 | 0.00 | 0.00 | 0.00 | 49 | 1016.5 |
| 20260506193803 | 44 | 317 | 5.2 | 13.9 | 0.00 | 0.00 | 0.00 | 49 | 1016.6 |
| 20260506193303 | 43 | 282 | 5.2 | 17.4 | 0.00 | 0.00 | 0.00 | 49 | 1016.6 |
| 20260506192804 | 43 | 0 | 6.1 | 12.2 | 0.00 | 0.00 | 0.00 | 49 | 1016.7 |
| 20260506192305 | 43 | 322 | 6.1 | 10.4 | 0.00 | 0.00 | 0.00 | 49 | 1016.7 |
| 20260506191803 | 43 | 237 | 3.5 | 13.0 | 0.00 | 0.00 | 0.00 | 49 | 1016.7 |
| 20260506191304 | 43 | 273 | 4.3 | 12.2 | 0.00 | 0.00 | 0.00 | 49 | 1016.7 |
| 20260506190803 | 43 | 270 | 6.1 | 14.8 | 0.00 | 0.00 | 0.00 | 49 | 1016.7 |
| 20260506190303 | 43 | 313 | 4.3 | 12.2 | 0.00 | 0.00 | 0.00 | 49 | 1016.7 |
| 20260506185803 | 43 | 293 | 4.3 | 10.4 | 0.00 | 0.00 | 0.00 | 50 | 1016.7 |
| 20260506185306 | 42 | 306 | 6.1 | 11.3 | 0.00 | 0.00 | 0.00 | 50 | 1016.8 |
| 20260506184303 | 42 | 281 | 6.1 | 10.4 | 0.00 | 0.00 | 0.00 | 50 | 1016.8 |
| 20260506183803 | 42 | 279 | 6.1 | 13.0 | 0.00 | 0.00 | 0.00 | 50 | 1016.8 |
| 20260506183303 | 42 | 277 | 5.2 | 10.4 | 0.00 | 0.00 | 0.00 | 50 | 1016.7 |
| 20260506182803 | 42 | 282 | 5.2 | 11.3 | 0.00 | 0.00 | 0.00 | 50 | 1016.7 |
| 20260506182306 | 42 | 299 | 6.1 | 11.3 | 0.00 | 0.00 | 0.00 | 50 | 1016.8 |
| 20260506181803 | 42 | 257 | 7.8 | 15.6 | 0.00 | 0.00 | 0.00 | 50 | 1016.8 |
| 20260506181303 | 43 | 292 | 6.1 | 15.6 | 0.00 | 0.00 | 0.00 | 50 | 1016.7 |
| 20260506180303 | 42 | 244 | 5.2 | 10.4 | 0.00 | 0.00 | 0.00 | 50 | 1016.8 |
| 20260506175306 | 42 | 297 | 4.3 | 10.4 | 0.00 | 0.00 | 0.00 | 52 | 1016.7 |
| 20260506174803 | 42 | 295 | 6.1 | 12.2 | 0.00 | 0.00 | 0.00 | 52 | 1016.8 |
| 20260506174303 | 42 | 275 | 4.3 | 8.7 | 0.00 | 0.00 | 0.00 | 52 | 1016.7 |
| 20260506173803 | 42 | 301 | 5.2 | 10.4 | 0.00 | 0.00 | 0.00 | 52 | 1016.7 |
| 20260506172803 | 42 | 258 | 6.1 | 11.3 | 0.00 | 0.00 | 0.00 | 52 | 1016.8 |
| 20260506171803 | 42 | 284 | 7.8 | 13.0 | 0.00 | 0.00 | 0.00 | 52 | 1016.9 |
| 20260506171304 | 42 | 250 | 7.0 | 13.0 | 0.00 | 0.00 | 0.00 | 52 | 1016.9 |
| 20260506170803 | 43 | 263 | 6.1 | 11.3 | 0.00 | 0.00 | 0.00 | 52 | 1016.8 |
| 20260506170303 | 43 | 0 | 6.1 | 12.2 | 0.00 | 0.00 | 0.00 | 52 | 1017.0 |
| 20260506165803 | 42 | 359 | 4.3 | 14.8 | 0.00 | 0.00 | 0.00 | 53 | 1016.9 |
| 20260506165305 | 42 | 272 | 4.3 | 10.4 | 0.00 | 0.00 | 0.00 | 53 | 1017.0 |
| 20260506164303 | 41 | 269 | 7.0 | 12.2 | 0.00 | 0.00 | 0.00 | 53 | 1017.0 |
| 20260506163303 | 41 | 284 | 6.1 | 12.2 | 0.00 | 0.00 | 0.00 | 53 | 1017.0 |
| 20260506162803 | 41 | 277 | 6.1 | 10.4 | 0.00 | 0.00 | 0.00 | 53 | 1017.0 |
| 20260506162306 | 41 | 247 | 7.0 | 13.0 | 0.00 | 0.00 | 0.00 | 53 | 1017.0 |
| 20260506161803 | 41 | 258 | 6.1 | 17.4 | 0.00 | 0.00 | 0.00 | 53 | 1017.0 |
| 20260506161303 | 41 | 292 | 4.3 | 10.4 | 0.00 | 0.00 | 0.00 | 53 | 1017.0 |
| 20260506160803 | 41 | 266 | 5.2 | 13.9 | 0.00 | 0.00 | 0.00 | 53 | 1017.0 |
| 20260506160303 | 41 | 252 | 7.0 | 13.0 | 0.00 | 0.00 | 0.00 | 53 | 1016.9 |
| 20260506155803 | 41 | 256 | 6.1 | 12.2 | 0.00 | 0.00 | 0.00 | 58 | 1016.9 |
| 20260506155306 | 41 | 274 | 3.5 | 12.2 | 0.00 | 0.00 | 0.00 | 58 | 1016.8 |
| 20260506154803 | 41 | 259 | 3.5 | 8.7 | 0.00 | 0.00 | 0.00 | 58 | 1016.8 |
| 20260506153803 | 41 | 253 | 2.6 | 11.3 | 0.00 | 0.00 | 0.00 | 58 | 1016.8 |
| 20260506153303 | 41 | 267 | 5.2 | 10.4 | 0.00 | 0.00 | 0.00 | 58 | 1016.7 |
| 20260506152305 | 41 | 273 | 7.8 | 13.9 | 0.00 | 0.00 | 0.00 | 58 | 1016.7 |
| 20260506151803 | 41 | 276 | 5.2 | 10.4 | 0.00 | 0.00 | 0.00 | 58 | 1016.7 |
| 20260506151303 | 41 | 244 | 5.2 | 10.4 | 0.00 | 0.00 | 0.00 | 58 | 1016.7 |
| 20260506150304 | 41 | 287 | 4.3 | 10.4 | 0.00 | 0.00 | 0.00 | 58 | 1016.7 |
| 20260506144803 | 41 | 283 | 5.2 | 11.3 | 0.00 | 0.00 | 0.00 | 61 | 1016.6 |
| 20260506144303 | 41 | 260 | 4.3 | 10.4 | 0.00 | 0.00 | 0.00 | 61 | 1016.7 |
| 20260506143803 | 41 | 259 | 5.2 | 8.7 | 0.00 | 0.00 | 0.00 | 61 | 1016.7 |
| 20260506143303 | 40 | 259 | 6.1 | 11.3 | 0.00 | 0.00 | 0.00 | 61 | 1016.8 |
| 20260506142803 | 40 | 302 | 5.2 | 11.3 | 0.00 | 0.00 | 0.00 | 61 | 1016.7 |
| 20260506142306 | 41 | 339 | 6.1 | 10.4 | 0.00 | 0.00 | 0.00 | 61 | 1016.7 |
| 20260506141803 | 41 | 346 | 5.2 | 10.4 | 0.00 | 0.00 | 0.00 | 61 | 1016.6 |
| 20260506141303 | 40 | 350 | 2.6 | 11.3 | 0.00 | 0.00 | 0.00 | 61 | 1016.6 |
| 20260506140803 | 41 | 268 | 7.0 | 11.3 | 0.00 | 0.00 | 0.00 | 61 | 1016.6 |
| 20260506140303 | 41 | 251 | 6.1 | 10.4 | 0.00 | 0.00 | 0.00 | 61 | 1016.5 |
| 20260506134803 | 40 | 254 | 6.1 | 13.0 | 0.00 | 0.00 | 0.00 | 61 | 1016.4 |
| 20260506134303 | 40 | 266 | 6.1 | 11.3 | 0.00 | 0.00 | 0.00 | 61 | 1016.4 |
| 20260506133803 | 40 | 268 | 6.1 | 12.2 | 0.00 | 0.00 | 0.00 | 61 | 1016.3 |
| 20260506133303 | 40 | 249 | 7.0 | 11.3 | 0.00 | 0.00 | 0.00 | 61 | 1016.3 |
| 20260506132803 | 40 | 327 | 5.2 | 10.4 | 0.00 | 0.00 | 0.00 | 61 | 1016.3 |
| 20260506132307 | 40 | 0 | 5.2 | 10.4 | 0.00 | 0.00 | 0.00 | 61 | 1016.2 |
| 20260506131803 | 40 | 352 | 5.2 | 10.4 | 0.00 | 0.00 | 0.00 | 61 | 1016.2 |
| 20260506131303 | 39 | 338 | 4.3 | 8.7 | 0.00 | 0.00 | 0.00 | 61 | 1016.3 |
| 20260506130803 | 38 | 297 | 2.6 | 5.2 | 0.00 | 0.00 | 0.00 | 61 | 1016.2 |
| 20260506125803 | 37 | 0 | 1.7 | 4.3 | 0.00 | 0.00 | 0.00 | 69 | 1016.0 |
| 20260506125305 | 36 | 0 | 0.9 | 2.6 | 0.00 | 0.00 | 0.00 | 69 | 1016.0 |
| 20260506124303 | 35 | 0 | 0.9 | 2.6 | 0.00 | 0.00 | 0.00 | 69 | 1015.9 |
| 20260506123804 | 34 | 0 | 0.9 | 1.7 | 0.00 | 0.00 | 0.00 | 69 | 1015.8 |
| 20260506123303 | 33 | 0 | 0.9 | 2.6 | 0.00 | 0.00 | 0.00 | 69 | 1015.7 |
| 20260506122803 | 33 | 0 | 1.7 | 2.6 | 0.00 | 0.00 | 0.00 | 69 | 1015.6 |
| 20260506122305 | 32 | 0 | 0.0 | 2.6 | 0.00 | 0.00 | 0.00 | 69 | 1015.6 |
| 20260506121804 | 31 | 0 | 0.0 | 1.7 | 0.00 | 0.00 | 0.00 | 69 | 1015.6 |
| 20260506121303 | 30 | 0 | 0.9 | 2.6 | 0.00 | 0.00 | 0.00 | 69 | 1015.7 |
| 20260506120803 | 30 | 0 | 0.0 | 0.9 | 0.00 | 0.00 | 0.00 | 69 | 1015.8 |
| 20260506120303 | 29 | 0 | 0.0 | 0.9 | 0.00 | 0.00 | 0.00 | 69 | 1015.8 |
| 20260506115803 | 29 | 0 | 0.0 | 0.9 | 0.00 | 0.00 | 0.00 | 77 | 1015.7 |
| 20260506115306 | 29 | 0 | 0.0 | 0.0 | 0.00 | 0.00 | 0.00 | 77 | 1015.3 |
| 20260506114803 | 28 | 284 | 0.0 | 0.0 | 0.00 | 0.00 | 0.00 | 77 | 1015.2 |
| 20260506114303 | 28 | 0 | 0.0 | 1.7 | 0.00 | 0.00 | 0.00 | 77 | 1015.0 |
| 20260506112804 | 27 | 300 | 0.0 | 0.9 | 0.00 | 0.00 | 0.00 | 77 | 1015.0 |
| 20260506111804 | 27 | 302 | 0.0 | 0.0 | 0.00 | 0.00 | 0.00 | 77 | 1015.0 |
| 20260506111304 | 26 | 302 | 0.0 | 0.0 | 0.00 | 0.00 | 0.00 | 77 | 1015.0 |
| 20260506110803 | 26 | 302 | 0.0 | 0.0 | 0.00 | 0.00 | 0.00 | 77 | 1015.1 |
| 20260506110304 | 26 | 302 | 0.0 | 0.0 | 0.00 | 0.00 | 0.00 | 77 | 1015.2 |
| 20260506105803 | 26 | 302 | 0.0 | 0.0 | 0.00 | 0.00 | 0.00 | 73 | 1015.1 |
| 20260506105305 | 27 | 302 | 0.0 | 0.0 | 0.00 | 0.00 | 0.00 | 73 | 1015.0 |
| 20260506104803 | 27 | 302 | 0.0 | 0.0 | 0.00 | 0.00 | 0.00 | 73 | 1015.0 |
| 20260506104303 | 27 | 302 | 0.0 | 0.0 | 0.00 | 0.00 | 0.00 | 73 | 1015.0 |
| 20260506103803 | 27 | 302 | 0.0 | 0.0 | 0.00 | 0.00 | 0.00 | 73 | 1015.0 |
| 20260506103303 | 27 | 302 | 0.0 | 0.0 | 0.00 | 0.00 | 0.00 | 73 | 1014.9 |
| 20260506102803 | 27 | 302 | 0.0 | 0.0 | 0.00 | 0.00 | 0.00 | 73 | 1014.8 |
| 20260506102305 | 27 | 302 | 0.0 | 0.0 | 0.00 | 0.00 | 0.00 | 73 | 1014.7 |
| 20260506101803 | 27 | 302 | 0.0 | 0.0 | 0.00 | 0.00 | 0.00 | 73 | 1014.7 |
| 20260506101304 | 27 | 302 | 0.0 | 0.0 | 0.00 | 0.00 | 0.00 | 73 | 1014.7 |
| 20260506100803 | 27 | 302 | 0.0 | 0.0 | 0.00 | 0.00 | 0.00 | 73 | 1014.7 |
| 20260506100303 | 28 | 302 | 0.0 | 0.0 | 0.00 | 0.00 | 0.00 | 73 | 1014.7 |
| 20260506095803 | 28 | 302 | 0.0 | 0.0 | 0.00 | 0.00 | 0.00 | 70 | 1014.6 |
| 20260506095305 | 28 | 302 | 0.0 | 0.0 | 0.00 | 0.00 | 0.00 | 70 | 1014.5 |
| 20260506094804 | 28 | 302 | 0.0 | 0.0 | 0.00 | 0.00 | 0.00 | 70 | 1014.5 |
| 20260506093303 | 28 | 302 | 0.0 | 0.9 | 0.00 | 0.00 | 0.00 | 70 | 1014.4 |
| 20260506092803 | 28 | 302 | 0.0 | 0.0 | 0.00 | 0.00 | 0.00 | 70 | 1014.4 |
| 20260506092305 | 28 | 302 | 0.0 | 0.0 | 0.00 | 0.00 | 0.00 | 70 | 1014.4 |
| 20260506091804 | 28 | 302 | 0.0 | 0.0 | 0.00 | 0.00 | 0.00 | 70 | 1014.4 |
| 20260506091303 | 28 | 302 | 0.0 | 0.0 | 0.00 | 0.00 | 0.00 | 70 | 1014.5 |
| 20260506090803 | 29 | 302 | 0.0 | 0.0 | 0.00 | 0.00 | 0.00 | 70 | 1014.5 |
| 20260506085803 | 29 | 302 | 0.0 | 0.0 | 0.00 | 0.00 | 0.00 | 68 | 1014.3 |
| 20260506085305 | 29 | 302 | 0.0 | 0.0 | 0.00 | 0.00 | 0.00 | 68 | 1014.3 |
| 20260506084803 | 29 | 302 | 0.0 | 0.0 | 0.00 | 0.00 | 0.00 | 68 | 1014.3 |
| 20260506084303 | 30 | 302 | 0.0 | 0.0 | 0.00 | 0.00 | 0.00 | 68 | 1014.3 |
| 20260506082803 | 30 | 302 | 0.0 | 0.0 | 0.00 | 0.00 | 0.00 | 68 | 1014.3 |
| 20260506081804 | 30 | 302 | 0.0 | 0.0 | 0.00 | 0.00 | 0.00 | 68 | 1014.2 |
| 20260506081304 | 30 | 302 | 0.0 | 0.0 | 0.00 | 0.00 | 0.00 | 68 | 1014.2 |
| 20260506080803 | 31 | 302 | 0.0 | 0.0 | 0.00 | 0.00 | 0.00 | 68 | 1014.2 |
| 20260506072803 | 32 | 301 | 0.9 | 1.7 | 0.00 | 0.00 | 0.00 | 64 | 1013.9 |
| 20260506072305 | 32 | 301 | 0.9 | 1.7 | 0.00 | 0.00 | 0.00 | 64 | 1013.7 |
| 20260506071804 | 32 | 299 | 0.9 | 2.6 | 0.00 | 0.00 | 0.00 | 64 | 1013.7 |
| 20260506070803 | 32 | 318 | 0.9 | 2.6 | 0.00 | 0.00 | 0.00 | 64 | 1013.6 |
| 20260506062305 | 34 | 286 | 1.7 | 2.6 | 0.00 | 0.00 | 0.00 | 58 | 1013.4 |
| 20260506061803 | 34 | 296 | 0.9 | 2.6 | 0.00 | 0.00 | 0.00 | 58 | 1013.3 |
| 20260506061304 | 34 | 296 | 0.9 | 1.7 | 0.00 | 0.00 | 0.00 | 58 | 1013.3 |
| 20260506060803 | 34 | 296 | 0.9 | 2.6 | 0.00 | 0.00 | 0.00 | 58 | 1013.3 |
| 20260506060304 | 35 | 313 | 0.9 | 2.6 | 0.00 | 0.00 | 0.00 | 58 | 1013.3 |
| 20260506051303 | 37 | 282 | 1.7 | 2.6 | 0.00 | 0.00 | 0.00 | 51 | 1013.1 |
| 20260506050814 | 37 | 273 | 1.7 | 2.6 | 0.00 | 0.00 | 0.00 | 51 | 1013.1 |
| 20260506050303 | 37 | 279 | 0.9 | 2.6 | 0.00 | 0.00 | 0.00 | 51 | 1013.0 |
| 20260506044803 | 38 | 284 | 0.0 | 1.7 | 0.00 | 0.00 | 0.00 | 48 | 1012.8 |
| 20260506044303 | 39 | 284 | 0.9 | 2.6 | 0.00 | 0.00 | 0.00 | 48 | 1012.8 |
| 20260506043804 | 38 | 0 | 0.9 | 2.6 | 0.00 | 0.00 | 0.00 | 48 | 1012.7 |
| 20260506043303 | 39 | 0 | 0.9 | 2.6 | 0.00 | 0.00 | 0.00 | 48 | 1012.7 |
| 20260506042804 | 39 | 0 | 0.9 | 2.6 | 0.00 | 0.00 | 0.00 | 48 | 1012.7 |
| 20260506042305 | 39 | 0 | 0.9 | 2.6 | 0.00 | 0.00 | 0.00 | 48 | 1012.7 |
| 20260506041803 | 40 | 0 | 0.9 | 2.6 | 0.00 | 0.00 | 0.00 | 48 | 1012.6 |
| 20260506041304 | 40 | 0 | 0.9 | 4.3 | 0.00 | 0.00 | 0.00 | 48 | 1012.5 |
| 20260506040304 | 40 | 0 | 1.7 | 4.3 | 0.00 | 0.00 | 0.00 | 48 | 1012.5 |
| 20260506035803 | 41 | 0 | 1.7 | 4.3 | 0.00 | 0.00 | 0.00 | 46 | 1012.5 |
| 20260506035306 | 41 | 0 | 1.7 | 4.3 | 0.00 | 0.00 | 0.00 | 46 | 1012.4 |
| 20260506034803 | 41 | 0 | 1.7 | 7.0 | 0.00 | 0.00 | 0.00 | 46 | 1012.4 |
| 20260506034303 | 41 | 0 | 1.7 | 7.0 | 0.00 | 0.00 | 0.00 | 46 | 1012.4 |
| 20260506033803 | 41 | 0 | 2.6 | 5.2 | 0.00 | 0.00 | 0.00 | 46 | 1012.4 |
| 20260506033304 | 42 | 0 | 2.6 | 5.2 | 0.00 | 0.00 | 0.00 | 46 | 1012.3 |
| 20260506032803 | 42 | 0 | 1.7 | 5.2 | 0.00 | 0.00 | 0.00 | 46 | 1012.3 |
| 20260506032305 | 42 | 0 | 2.6 | 7.0 | 0.00 | 0.00 | 0.00 | 46 | 1012.3 |
| 20260506031804 | 43 | 0 | 2.6 | 7.0 | 0.00 | 0.00 | 0.00 | 46 | 1012.3 |
| 20260506031304 | 43 | 0 | 2.6 | 5.2 | 0.00 | 0.00 | 0.00 | 46 | 1012.3 |
| 20260506025803 | 43 | 0 | 2.6 | 7.0 | 0.00 | 0.00 | 0.00 | 40 | 1012.1 |
| 20260506024804 | 43 | 0 | 1.7 | 7.0 | 0.00 | 0.00 | 0.00 | 40 | 1012.1 |
| 20260506024304 | 44 | 0 | 2.6 | 4.3 | 0.00 | 0.00 | 0.00 | 40 | 1011.9 |
| 20260506023803 | 44 | 0 | 2.6 | 7.0 | 0.00 | 0.00 | 0.00 | 40 | 1011.8 |
| 20260506023304 | 44 | 0 | 1.7 | 2.6 | 0.00 | 0.00 | 0.00 | 40 | 1011.8 |
| 20260506022803 | 44 | 0 | 0.9 | 2.6 | 0.00 | 0.00 | 0.00 | 40 | 1011.7 |
| 20260506022305 | 44 | 0 | 1.7 | 4.3 | 0.00 | 0.00 | 0.00 | 40 | 1011.6 |
| 20260506021804 | 44 | 0 | 1.7 | 4.3 | 0.00 | 0.00 | 0.00 | 40 | 1011.5 |
| 20260506021304 | 44 | 0 | 1.7 | 4.3 | 0.00 | 0.00 | 0.00 | 40 | 1011.4 |
| 20260506020803 | 45 | 0 | 0.9 | 2.6 | 0.00 | 0.00 | 0.00 | 40 | 1011.4 |
| 20260506015803 | 45 | 0 | 3.5 | 7.8 | 0.00 | 0.00 | 0.00 | 37 | 1011.3 |